Tracking 18794 objects as of 21-September-2017
HD Live streaming from Space Station
objects crossing your sky now

OPS 9317 (IDSCS 7)

Track OPS 9317 (IDSCS 7) now!
OPS 9317 (IDSCS 7) is classified as:


NORAD ID: 2221
Int'l Code: 1966-053H
Perigee: 33,726.0 km
Apogee: 34,353.6 km
Inclination: 2.5 °
Period: 1,347.4 minutes
Semi major axis: 40410 km
RCS: 0.2512 m2 (medium)
Launch date: June 16, 1966
Source: United States (US)
Launch site: AIR FORCE EASTERN TEST RANGE (AFETR)
aabbcc
Your satellite tracking list
Your tracking list is empty





NASA's NSSDC Master Catalog

Two Line Element Set (TLE):
1  2221U 66053H   17263.52549456 -.00000142 +00000-0 +00000-0 0  9994
2  2221 002.5327 058.8406 0077652 097.2831 085.0558 01.06870243016915
Source of the keplerian elements: AFSPC